Simultaneous Nadir Overpasses (SNOs) Predictions

Prediction of SNOs between AQUA and LANDSAT-8 Satellite Orbit:

Table of predicted SNOs for the next 14.0 days since TLE Epoch: 4/5/2025
Index Date (AQUA) Time (AQUA) Lat,Lon (AQUA) SZA (AQUA ) Date (LANDSAT-8) Time (LANDSAT-8) Lat,Lon (LANDSAT-8) SZA (LANDSAT-8 ) Distance(km) Time Diff (sec)
1 04/07/2025 07:16:17 -74.54,-102.04 112.40 04/07/2025 07:15:11 -74.53,-104.68 112.49 78.08 66
2 04/07/2025 08:05:41 74.78, 65.02 67.81 04/07/2025 08:04:32 74.76, 63.53 67.74 43.50 69
3 04/07/2025 08:55:04 -75.05,-128.02 111.96 04/07/2025 08:53:54 -75.04,-128.11 111.98 2.90 70
4 04/07/2025 09:44:24 75.08, 39.55 68.07 04/07/2025 09:43:19 75.06, 39.60 68.04 2.73 65
5 04/07/2025 10:33:41 -75.05,-152.69 111.98 04/07/2025 10:32:46 -75.09,-152.70 111.95 3.94 55
6 04/07/2025 11:23:01 75.09, 14.88 68.05 04/07/2025 11:22:12 75.06, 14.88 68.02 2.77 49
7 04/07/2025 12:12:19 -75.11,-177.49 111.95 04/07/2025 12:11:39 -75.09,-177.42 111.97 2.96 40
8 04/07/2025 13:01:38 75.09, -9.78 68.03 04/07/2025 13:01:04 75.12, -9.70 68.05 3.32 34
9 04/07/2025 13:50:56 -75.11, 157.84 111.97 04/07/2025 13:50:32 -75.09, 157.87 112.00 2.59 24
10 04/07/2025 14:40:15 75.10, -34.45 68.01 04/07/2025 14:39:57 75.12, -34.42 68.02 2.10 18
11 04/07/2025 15:29:33 -75.12, 133.18 112.00 04/07/2025 15:29:25 -75.09, 133.15 112.02 3.06 8
12 04/07/2025 16:18:52 75.10, -59.12 67.98 04/07/2025 16:18:50 75.12, -59.14 68.00 1.56 2
13 04/07/2025 17:08:10 -75.12, 108.51 112.02 04/07/2025 17:08:17 -75.14, 108.56 111.99 2.67 7
14 04/07/2025 17:57:29 75.11, -83.78 67.96 04/07/2025 17:57:43 75.12, -83.86 67.97 2.27 14
15 04/07/2025 18:46:47 -75.13, 83.84 112.04 04/07/2025 18:47:10 -75.14, 83.85 112.02 1.68 23
16 04/07/2025 19:36:06 75.12,-108.45 67.94 04/07/2025 19:36:36 75.12,-108.57 67.95 3.54 30
17 04/07/2025 20:25:24 -75.13, 59.18 112.06 04/07/2025 20:26:03 -75.14, 59.13 112.04 1.78 39
18 04/07/2025 21:14:44 75.17,-133.26 67.97 04/07/2025 21:15:28 75.17,-133.16 67.98 2.82 44
19 04/07/2025 22:04:01 -75.14, 34.51 112.08 04/07/2025 22:04:56 -75.15, 34.41 112.07 2.85 55
20 04/07/2025 22:53:21 75.18,-157.92 67.95 04/07/2025 22:54:21 75.17,-157.88 67.95 1.50 60
21 04/07/2025 23:42:39 -75.20, 9.70 112.05 04/07/2025 23:43:48 -75.20, 9.83 112.04 3.55 69
22 04/08/2025 00:32:01 75.33, 176.99 68.07 04/08/2025 00:33:11 75.32, 177.82 68.09 23.32 70
23 04/08/2025 01:21:26 -75.69, -16.39 111.60 04/08/2025 01:22:32 -75.65, -13.64 111.58 75.94 66



Historial Predications of SNOs between AQUA and LANDSAT-8
